Lone Rock, WI

2:41 PM CST on November 19, 2017 (GMT -0600)
Tri-County Regional

Weather History for KLNR - October, 2013

Change the Weather History Date:

Monday, October 14, 2013

  Actual Average Record
Temperature  
Mean Temperature 46 °F -  
Max Temperature 64 °F 59 °F 78 °F (2000)
Min Temperature 30 °F 37 °F 25 °F (2006)
Degree Days  
Heating Degree Days 18    
Moisture  
Dew Point 35 °F    
Average Humidity 84    
Maximum Humidity 100    
Minimum Humidity 48    
Precipitation  
Precipitation 0.00 in - - ()
Sea Level Pressure  
Sea Level Pressure 30.35 in    
Wind  
Wind Speed 2 mph (ESE)    
Max Wind Speed 16 mph    
Max Gust Speed 22 mph    
Visibility 6 miles    
Events Fog    
Averages and records for this station are not official NWS values.
T = Trace of Precipitation, MM = Missing Value Source: NWS Daily Summary

Daily Weather History Graph

Daily Weather History Graph

Search for Another Location

Airport or City:

Trip Planner

Search our weather history database for the weather conditions in past years. The results will help you decide how hot, cold, wet, or windy it might be!

Date:

Astronomy

Oct. 14, 2013 Rise Set
Actual Time 7:13 AM CDT 6:19 PM CDT
Civil Twilight 6:44 AM CDT 6:47 PM CDT
Nautical Twilight 6:11 AM CDT 7:20 PM CDT
Astronomical Twilight 5:38 AM CDT 7:53 PM CDT
Moon 3:54 PM CDT (10/14) 2:23 AM CDT (10/14)
Length of Visible Light 12h 02m
Length of Day
11h 05m
Waxing Gibbous, 79% of the Moon is Illuminated
Oct 14
Waxing Gibbous
Oct 18
Full
Oct 26
Last Quarter
Nov 3
New
Nov 9
First Quarter

Hourly Weather History & Observations

Time (CDT) Temp. Dew Point Humidity Pressure Visibility Wind Dir Wind Speed Gust Speed Precip Events Conditions
12:56 AM 35.1 °F 30.9 °F 85% 30.42 in 10.0 mi Calm Calm - N/A   Clear
1:56 AM 34.0 °F 32.0 °F 92% 30.43 in 10.0 mi Calm Calm - N/A   Clear
2:56 AM 33.1 °F 30.9 °F 92% 30.43 in 10.0 mi Calm Calm - N/A   Clear
3:34 AM 32.0 °F 28.4 °F 87% 30.43 in 10.0 mi Calm Calm - N/A   Scattered Clouds
3:43 AM 30.2 °F 28.4 °F 93% 30.43 in 10.0 mi Calm Calm - N/A   Mostly Cloudy
3:56 AM 32.0 °F 30.0 °F 92% 30.43 in 2.5 mi Calm Calm - N/A   Overcast
4:08 AM 30.2 °F 30.2 °F 100% 30.43 in 1.0 mi Calm Calm - N/A   Mist
4:15 AM 30.2 °F 30.2 °F 100% 30.43 in 0.5 mi Calm Calm - N/A Fog Light Freezing Fog
4:27 AM 32.0 °F 30.2 °F 93% 30.42 in 1.0 mi Calm Calm - N/A   Overcast
4:41 AM 32.0 °F 30.2 °F 93% 30.43 in 0.5 mi Calm Calm - N/A Fog Fog
4:56 AM 32.0 °F 30.9 °F 96% 30.42 in 0.8 mi Calm Calm - N/A   Mist
5:07 AM 32.0 °F 30.2 °F 93% 30.42 in 0.2 mi Calm Calm - N/A Fog Fog
5:32 AM 30.2 °F 30.2 °F 100% 30.42 in 0.2 mi Calm Calm - N/A Fog Light Freezing Fog
5:56 AM 32.0 °F 30.9 °F 96% 30.42 in 0.2 mi Calm Calm - N/A Fog Fog
6:56 AM 30.9 °F 30.0 °F 96% 30.42 in 0.2 mi Calm Calm - N/A Fog Light Freezing Fog
7:11 AM 30.2 °F 30.2 °F 100% 30.41 in 0.5 mi Calm Calm - N/A Fog Light Freezing Fog
7:20 AM 30.2 °F 28.4 °F 93% 30.41 in 2.0 mi Calm Calm - N/A   Overcast
7:39 AM 30.2 °F 30.2 °F 100% 30.41 in 5.0 mi Calm Calm - N/A   Overcast
7:49 AM 30.2 °F 30.2 °F 100% 30.41 in 1.8 mi Calm Calm - N/A   Overcast
7:56 AM 32.0 °F 30.9 °F 96% 30.41 in 1.8 mi Calm Calm - N/A   Overcast
8:05 AM 32.0 °F 30.2 °F 93% 30.41 in 0.2 mi Calm Calm - N/A Fog Fog
8:25 AM 32.0 °F 32.0 °F 100% 30.41 in 0.8 mi Calm Calm - N/A   Mist
8:35 AM 33.8 °F 33.8 °F 100% 30.41 in 1.0 mi Calm Calm - N/A   Overcast
8:45 AM 33.8 °F 33.8 °F 100% 30.41 in 3.0 mi Calm Calm - N/A   Mostly Cloudy
8:56 AM 36.0 °F 35.1 °F 97% 30.42 in 10.0 mi Calm Calm - N/A   Scattered Clouds
9:56 AM 43.0 °F 39.0 °F 86% 30.42 in 10.0 mi Calm Calm - N/A   Clear
10:56 AM 54.0 °F 42.1 °F 64% 30.39 in 10.0 mi ESE 5.8 mph - N/A   Clear
11:56 AM 57.9 °F 42.1 °F 56% 30.36 in 10.0 mi SE 12.7 mph - N/A   Clear
12:56 PM 59.0 °F 42.1 °F 53% 30.31 in 10.0 mi East 11.5 mph 19.6 mph N/A   Clear
1:56 PM 60.1 °F 42.1 °F 51% 30.27 in 10.0 mi SE 12.7 mph - N/A   Clear
2:56 PM 63.0 °F 43.0 °F 48% 30.23 in 10.0 mi ESE 16.1 mph 21.9 mph N/A   Clear
3:56 PM 62.1 °F 43.0 °F 50% 30.19 in 10.0 mi ESE 13.8 mph 21.9 mph N/A   Clear
4:56 PM 61.0 °F 43.0 °F 52% 30.18 in 10.0 mi ESE 13.8 mph - N/A   Clear
5:56 PM 59.0 °F 43.0 °F 55% 30.17 in 10.0 mi ESE 10.4 mph - N/A   Clear
6:56 PM 52.0 °F 42.1 °F 69% 30.18 in 10.0 mi East 6.9 mph - N/A   Clear
7:56 PM 53.1 °F 43.0 °F 69% 30.16 in 10.0 mi East 10.4 mph - N/A   Clear
8:56 PM 53.1 °F 43.0 °F 69% 30.15 in 10.0 mi ESE 11.5 mph - N/A   Clear
9:56 PM 50.0 °F 43.0 °F 77% 30.14 in 10.0 mi East 10.4 mph - N/A   Clear
10:56 PM 50.0 °F 43.0 °F 77% 30.11 in 10.0 mi East 13.8 mph - N/A   Clear
11:56 PM 48.9 °F 43.0 °F 80% 30.08 in 10.0 mi East 10.4 mph - N/A   Clear